Aeroporto :
LOGIN :

Iscrizione | Disclaimer

   EN    FR    IT 

 










Sommario :    VFR   VFR Marginale   IFR   IFR Intensivo   IFR Molto Intensivo
Visibilità : 
Base nubi : 
>= 8 km
>= 3000ft
5 / 8 km
1000 / 3000 ft
1500m / 5 km
500 / 1000 ft
800 / 1500m
200 / 500 ft
< 800m
< 200 ft
Simboli :   Temporali  Nebbia  Neve Forte  Precipitazioni Forti  Vento > 20 kt
SIGMETs :   Varie  Temporali  Ghiacco  Turbolenza  Onda orograficha  Ceneri Vulcaniche






- Altitudine del aeroporto : 76 ft
- Codice IATA : KID


ESMK - Kristianstad

ULTIMO METAR :
  • 200050Z AUTO 30017KT 9999 FEW025/// BKN053/// OVC096/// 01/M02 Q0998

METARs OBSOLETI :
  • 200020Z AUTO 29018KT 9999 -SN FEW014/// SCT022/// BKN033/// 01/M01 Q0998
  • 192350Z AUTO 29017KT 9999 -SN FEW011/// SCT017/// BKN023/// 01/M01 Q0998
  • 192320Z AUTO 29018KT 2800 -SN VV019 01/00 Q0998 RESHUP
  • 192250Z AUTO 29020KT 9999 -RA VV019 02/M00 Q0997
  • 192220Z AUTO 28018KT 9999 -RA FEW018/// BKN028/// OVC038/// 03/M00 Q0997 REUP

Previsioni scadute.



MetMap, La meteo Aeronautica in un colpo d'occhio ! - Copyright ORBIFLY Dicembre 2007 - Disclaimer

ORBIFLY MET'MAP TEAM :

Programmazione e sviluppo : Alexandra Zaïnal
Concezione : Baudouin d'Aumeries
Aiuto per la programmazione : Marc-Olivier Méhu
Supporto tecnico e logistico : Manuel Goepfert
Aiuto per la traduzione : Arnaldo La Scala

Contatto : metmap@orbifly.com




FONTI E CREDITI :

   NOAA